Miscellaneous Local Product
Issued by NWS North Platte, NE

Home | Current Version | Previous Version | Graphics & Text | Print | Product List | Glossary On
Versions: 1 2 3 4 5 6 7 8 9 10 11 12 13 14 15 16 17 18 19 20 21 22 23 24 25 26 27 28 29 30 31 32 33 34 35 36 37 38 39 40 41 42 43 44 45 46 47 48 49 50
000
AXUS43 KLBF 051310
MISLBF


WESTERN AND NORTH CENTRAL NEBRASKA HOURLY WEATHER ROUNDUP
NATIONAL WEATHER SERVICE NORTH PLATTE NE
700 AM CST THU MAR 05 2015

***STATIONS NOT REPORTING VARIABLES SUCH AS SKY/WEATHER OR
PRESSURE ARE PROVIDED BY THE NEBRASKA DEPARTMENT OF
ROADS...RAWS...AND APRS NETWORKS...AND ARE NOT UNDER
NATIONAL WEATHER SERVICE QUALITY CONTROL***

...OBSERVATIONS IN AND NEAR THE EASTERN PANHANDLE OF NEBRASKA...

CITY           SKY/WX    TMP DP  RH WIND       PRES   REMARKS
PINE RIDGE     PTCLDY    -3  -9  75 NW5       30.18S WCI -13
CHADRON        MOCLDY    -7 -13  75 W6        30.19S WCI -20
ALLIANCE       PTCLDY    -1  -7  75 W7        30.16S WCI -14
SIDNEY         CLEAR     10   3  73 W9        30.19R WCI  -3
WHITECLAY        N/A     -5 -12  72 SE6         N/A  WCI -18
CRESCENT LAKE    N/A      8   1  72 S5          N/A  WCI   0
LISCO            N/A      6  -2  70 W3          N/A
BIG SPRINGS      N/A      7   3  84 SW3         N/A
LEWELLEN         N/A     30  27  86 CALM        N/A
$$

...OBSERVATIONS IN NORTH CENTRAL NEBRASKA...

CITY           SKY/WX    TMP DP  RH WIND       PRES   REMARKS
VALENTINE      PTCLDY    -1  -6  79 CALM      30.27S
THEDFORD       CLEAR      5  -1  76 CALM      30.28S
AINSWORTH      PTCLDY     1  -3  80 S7        30.29S WCI -11
O`NEILL        PTCLDY    -1  -5  82 S6        30.36S WCI -12
ORD            PTCLDY    -3  -9  75 CALM      30.38S
BROKEN BOW     PTCLDY    -2  -8  76 CALM      30.34S
BROWNLEE         N/A     -1  -6  81 S6          N/A  WCI -13
SPRINGVIEW       N/A     -6 -10  83 CALM        N/A
BREWSTER         N/A      3  -1  82 CALM        N/A
ROSE             N/A      9   7  91 SE5         N/A  WCI   0
NEWPORT          N/A      8   5  86 S5          N/A  WCI   0
SARGENT          N/A      0  -4  83 CALM        N/A
COMSTOCK         N/A      8  -1  66 SW12        N/A  WCI  -7
CHAMBERS         N/A     -1 -20  40 S3          N/A
EWING            N/A     -1  -5  82 CALM        N/A
$$

...OBSERVATIONS IN SOUTHWEST NEBRASKA AND FAR NORTHEAST COLORADO...

CITY           SKY/WX    TMP DP  RH WIND       PRES   REMARKS
WRAY           FAIR      10   6  84 SW5       30.26S WCI   1
IMPERIAL         N/A      5   0  79 CALM      30.28R
OGALLALA       CLEAR      1  -2  85 CALM      30.26S
NORTH PLATTE   PTCLDY     0  -5  79 E5        30.32S WCI -10
MCCOOK         PTCLDY     7   0  73 E5        30.35R WCI  -2
LEXINGTON      PTCLDY     3  -1  83 CALM      30.37S
PAXTON           N/A      8   4  82 CALM        N/A
BRADY            N/A      0  -5  79 CALM        N/A
GOTHENBURG       N/A      4  -1  80 CALM        N/A
CALLAWAY         N/A      1  -4  80 S8          N/A  WCI -13
$$

...NORTH PLATTE AREA...

CITY           SKY/WX    TMP DP  RH WIND       PRES   REMARKS
AIRPORT        PTCLDY     0  -5  79 E5        30.32S WCI -10
DOWNTOWN         N/A      6  -1  71 S5          N/A  WCI  -3
$$

...SOME WEATHER OBSERVATIONS FROM AROUND THE REGION...

CITY           SKY/WX    TMP DP  RH WIND       PRES   REMARKS
DENVER         MOCLDY    15  -2  46 S14       30.14S WCI   0
LARAMIE        CLEAR     15   3  59 SW17      30.11F WCI  -1
CHEYENNE       PTCLDY    21   5  50 SW13      30.10S WCI   9
SCOTTSBLUFF    PTCLDY     6   0  76 N3        30.19R
RAPID CITY     PTCLDY     1  -4  79 CALM      30.13F
PIERRE         MOCLDY    -7 -11  83 CALM      30.29F
WINNER         FAIR       7  -3  64 SW15      30.30F WCI -10
SIOUX FALLS    MOCLDY    -8 -14  74 CALM      30.45R
OMAHA          CLEAR      4  -1  80 CALM      30.54R
GRAND ISLAND   PTCLDY     3  -4  72 S7        30.44R WCI  -9
KANSAS CITY    CLEAR      7  -1  70 N6        30.54R WCI  -3
WICHITA        PTCLDY    11   6  81 NW3       30.51R
HAYS           FAIR       9  -4  56 CALM      30.40F
LIBERAL        PTCLDY    10   5  79 W3        30.42R
GOODLAND       CLEAR     13   7  77 SW12      30.28S WCI  -1
$$



USA.gov is the U.S. government's official web portal to all federal, state and local government web resources and services.